Flag for Germany Weather past 2 weeks in Öhringen, Baden-Württemberg, Germany

Now
79 °F

Sunny.


Feels Like: 79 °F
Forecast: 55 / 80 °F
Wind: 5 mph from Northeast

Location: Oehringen

Current Time: Jul 24, 2014 at 1:23:06 PM

Latest Report: Jul 24, 2014 at 1:00 PM


Visibility: 17 mi

Pressure: 29.89 "Hg

Humidity: 40%

Dew point: 53 °F

Location of ÖhringenLocation

Historic Weather in Öhringen — Graph

°F

Öhringen temperature yesterday

Maximum temperature yesterday: 83 °F (at 4:00 PM)
Minimum temperature yesterday: 60 °F (at 6:00 AM)
Average temperature yesterday: 72 °F

Past Weeks' High & Low Weather Summary

 TemperatureHumidityPressure
High93 °F (Jul 19, 5:00 PM)98% (Jul 11, 3:00 AM)30.20 "Hg (Jul 11, 3:00 AM)
Low52 °F (Jul 9, 11:00 PM)21% (Jul 19, 5:00 PM)29.77 "Hg (Jul 10, 4:00 AM)
Average68 °F72%29.94 "Hg
* Reported Jul 9 3:00 PM — Jul 24 12:00 Noon, Öhringen, Weather by CustomWeather, © 2014

Note: Actual official high and low records may vary slightly from our data, if they occured in-between our weather recording intervals... More about our weather records

Advertising

Öhringen weather history for previous 24 hours

 ConditionsComfort  
Time TempWeatherWind HumidityBarometerVisibility
12:00 PM
Jul 24
76 °FSunny.3 mph48%29.89 "Hg17 mi
11:00 AM74 °FSunny.2 mph52%29.90 "Hg43 mi
10:00 AM71 °FPassing clouds.5 mph55%29.90 "Hg22 mi
9:00 AM68 °FSunny.3 mph58%29.91 "Hg19 mi
8:00 AM64 °FScattered clouds.1 mph70%29.92 "Hg13 mi
7:00 AM60 °FSunny.2 mph78%29.91 "Hg12 mi
6:00 AM59 °FSunny.1 mph83%29.91 "Hg10 mi
5:00 AM60 °FClear.2 mph80%29.91 "Hg12 mi
4:00 AM62 °FClear.2 mph76%29.92 "Hg14 mi
3:00 AM63 °FClear.1 mph74%29.92 "Hg16 mi
2:00 AM65 °FClear.3 mph70%29.93 "Hg17 mi
1:00 AM65 °FClear.2 mph74%29.94 "Hg16 mi
12:00 AM65 °FClear.2 mph79%29.95 "Hg14 mi
11:00 PM
Jul 23
69 °FPassing clouds.2 mph68%29.94 "Hg19 mi
10:00 PM70 °FPassing clouds.2 mph66%29.93 "Hg22 mi
9:00 PM74 °FSunny.3 mph54%29.92 "Hg25 mi
8:00 PM77 °FPassing clouds.3 mph48%29.91 "Hg22 mi
7:00 PM80 °FSunny.7 mph40%29.91 "Hg43 mi
6:00 PM83 °FSunny.5 mph37%29.90 "Hg22 mi
5:00 PM83 °FPassing clouds.7 mph35%29.91 "Hg22 mi
4:00 PM83 °FPassing clouds.7 mph34%29.92 "Hg43 mi
3:00 PM83 °FScattered clouds.5 mph37%29.94 "Hg31 mi
Weather by CustomWeather, © 2014

See weather overviewHow to use our weather pages